.
WxDataArchive / Data Records for 2005-12-30
2005-12-29 December 2005 2005-12-31

Data Records for Friday, 30 December 2005

Time	Temp	Chill	HIndex	Humid	Dewpt	 Wind 	HiWind	WindDir	Rain 	Barom 
-----	----	-----	------	-----	-----	------	------	-------	-----	----- 
00:00	35.0	35.0	35.0	82	30.1	0	2	248	0.00	29.869 
00:05	35.0	35.0	35.0	82	30.1	1	2	248	0.00	29.869 
00:10	35.0	35.0	35.0	82	30.1	1	3	248	0.00	29.869 
00:15	35.0	35.0	35.0	82	30.1	0	2	248	0.00	29.871 
00:20	35.0	35.0	35.0	82	30.1	0	2	248	0.00	29.871 
00:25	35.0	35.0	35.0	82	30.1	0	1	248	0.00	29.871 
00:30	35.0	35.0	35.0	82	30.1	0	0	---	0.00	29.863 
00:35	35.0	35.0	35.0	82	30.1	0	0	---	0.00	29.863 
00:40	35.0	35.0	35.0	82	30.1	0	0	---	0.00	29.863 
00:45	34.9	34.9	34.9	82	30.0	0	0	---	0.00	29.863 
00:50	34.9	34.9	34.9	82	30.0	0	0	---	0.00	29.863 
00:55	34.9	34.9	34.9	82	30.0	0	2	248	0.00	29.863 
01:00	34.9	34.9	34.9	82	30.0	1	2	248	0.00	29.866 
01:05	34.9	34.9	34.9	83	30.3	0	1	248	0.00	29.866 
01:10	34.9	34.9	34.9	83	30.3	0	0	---	0.00	29.866 
01:15	34.9	34.9	34.9	83	30.3	0	1	248	0.00	29.866 
01:20	34.9	34.9	34.9	83	30.3	0	0	---	0.00	29.866 
01:25	34.9	34.9	34.9	83	30.3	0	0	---	0.00	29.866 
01:30	34.9	34.9	34.9	83	30.3	0	0	---	0.00	29.862 
01:35	34.9	34.9	34.9	83	30.3	0	1	248	0.00	29.862 
01:40	34.9	34.9	34.9	83	30.3	0	2	248	0.00	29.862 
01:45	34.9	34.9	34.9	83	30.3	0	1	248	0.00	29.856 
01:50	34.9	34.9	34.9	83	30.3	0	1	248	0.00	29.856 
01:55	34.9	34.9	34.9	83	30.3	0	0	---	0.00	29.856 
02:00	34.9	34.9	34.9	83	30.3	0	2	248	0.00	29.860 
02:05	34.9	34.9	34.9	83	30.3	0	0	---	0.00	29.860 
02:10	34.9	34.9	34.9	84	30.6	0	0	---	0.00	29.860 
02:15	34.7	34.7	34.7	84	30.4	0	0	---	0.00	29.860 
02:20	34.7	34.7	34.7	84	30.4	0	1	248	0.00	29.860 
02:25	34.9	34.9	34.9	84	30.6	0	1	248	0.00	29.860 
02:30	34.9	34.9	34.9	84	30.6	0	1	248	0.00	29.864 
02:35	34.7	34.7	34.7	84	30.4	0	1	248	0.00	29.864 
02:40	34.7	34.7	34.7	84	30.4	1	3	158	0.00	29.864 
02:45	34.7	34.7	34.7	84	30.4	0	2	158	0.00	29.868 
02:50	34.7	34.7	34.7	83	30.1	1	4	248	0.00	29.868 
02:55	34.7	34.7	34.7	82	29.8	1	3	248	0.00	29.868 
03:00	34.7	34.7	34.7	83	30.1	0	1	248	0.00	29.874 
03:05	34.7	34.7	34.7	83	30.1	0	2	248	0.00	29.874 
03:10	34.7	34.7	34.7	84	30.4	0	3	248	0.00	29.874 
03:15	34.7	34.7	34.7	83	30.1	0	2	202	0.00	29.877 
03:20	34.7	34.7	34.7	83	30.1	1	3	248	0.00	29.877 
03:25	34.7	34.7	34.7	83	30.1	1	3	248	0.00	29.877 
03:30	34.7	34.7	34.7	83	30.1	0	3	248	0.00	29.881 
03:35	34.6	34.6	34.6	83	30.0	0	1	248	0.00	29.881 
03:40	34.6	34.6	34.6	83	30.0	0	2	248	0.00	29.881 
03:45	34.6	34.6	34.6	83	30.0	1	2	248	0.00	29.890 
03:50	34.6	34.6	34.6	83	30.0	1	2	248	0.00	29.890 
03:55	34.6	34.6	34.6	84	30.3	0	1	248	0.00	29.890 
04:00	34.6	34.6	34.6	83	30.0	0	2	248	0.00	29.886 
04:05	34.6	34.6	34.6	84	30.3	0	0	---	0.00	29.886 
04:10	34.6	34.6	34.6	84	30.3	0	1	248	0.00	29.886 
04:15	34.6	34.6	34.6	84	30.3	1	2	248	0.00	29.891 
04:20	34.6	34.6	34.6	84	30.3	0	1	248	0.00	29.891 
04:25	34.6	34.6	34.6	84	30.3	0	2	248	0.00	29.891 
04:30	34.4	34.4	34.4	84	30.1	1	2	248	0.00	29.892 
04:35	34.4	34.4	34.4	84	30.1	1	3	248	0.00	29.892 
04:40	34.4	34.4	34.4	85	30.4	1	3	248	0.00	29.892 
04:45	34.4	34.4	34.4	84	30.1	1	3	248	0.00	29.898 
04:50	34.4	34.4	34.4	85	30.4	1	3	248	0.00	29.898 
04:55	34.4	34.4	34.4	85	30.4	1	3	248	0.00	29.898 
05:00	34.4	34.4	34.4	85	30.4	1	2	225	0.00	29.899 
05:05	34.4	34.4	34.4	85	30.4	0	2	225	0.00	29.899 
05:10	34.4	34.4	34.4	84	30.1	0	1	225	0.00	29.899 
05:15	34.4	34.4	34.4	85	30.4	0	0	---	0.00	29.900 
05:20	34.4	34.4	34.4	85	30.4	0	0	---	0.00	29.900 
05:25	34.4	34.4	34.4	86	30.7	0	0	---	0.00	29.900 
05:30	34.4	34.4	34.4	86	30.7	0	1	225	0.00	29.905 
05:35	34.3	34.3	34.3	86	30.6	0	0	---	0.00	29.905 
05:40	34.3	34.3	34.3	86	30.6	0	1	225	0.00	29.905 
05:45	34.3	34.3	34.3	86	30.6	0	1	225	0.00	29.898 
05:50	34.3	34.3	34.3	86	30.6	0	1	225	0.00	29.898 
05:55	34.3	34.3	34.3	86	30.6	0	0	---	0.00	29.898 
06:00	34.3	34.3	34.3	86	30.6	0	1	225	0.00	29.900 
06:05	34.3	34.3	34.3	86	30.6	0	0	---	0.00	29.900 
06:10	34.3	34.3	34.3	86	30.6	0	0	---	0.00	29.900 
06:15	34.3	34.3	34.3	87	30.8	0	1	225	0.00	29.906 
06:20	34.3	34.3	34.3	86	30.6	0	1	225	0.00	29.906 
06:25	34.3	34.3	34.3	86	30.6	0	1	225	0.00	29.906 
06:30	34.1	34.1	34.1	87	30.6	0	2	225	0.00	29.900 
06:35	34.1	34.1	34.1	87	30.6	1	2	202	0.00	29.900 
06:40	34.1	34.1	34.1	87	30.6	0	2	180	0.00	29.900 
06:45	34.1	34.1	34.1	87	30.6	0	2	135	0.00	29.898 
06:50	34.1	34.1	34.1	88	30.9	0	1	112	0.00	29.898 
06:55	34.1	34.1	34.1	88	30.9	0	2	90	0.00	29.898 
07:00	34.1	34.1	34.1	88	30.9	1	2	90	0.00	29.900 
07:05	34.1	34.1	34.1	88	30.9	1	2	112	0.00	29.900 
07:10	34.0	34.0	34.0	88	30.8	0	2	112	0.00	29.900 
07:15	34.0	34.0	34.0	89	31.1	0	1	112	0.00	29.902 
07:20	34.0	34.0	34.0	89	31.1	0	2	112	0.00	29.902 
07:25	34.0	34.0	34.0	89	31.1	0	1	135	0.00	29.902 
07:30	34.0	34.0	34.0	89	31.1	0	1	135	0.00	29.898 
07:35	34.0	34.0	34.0	89	31.1	0	1	135	0.00	29.898 
07:40	34.0	34.0	34.0	89	31.1	0	1	112	0.00	29.898 
07:45	34.0	34.0	34.0	89	31.1	0	2	112	0.00	29.893 
07:50	34.0	34.0	34.0	89	31.1	0	2	135	0.00	29.893 
07:55	34.0	34.0	34.0	89	31.1	0	1	135	0.00	29.893 
08:00	34.0	34.0	34.0	89	31.1	1	3	135	0.00	29.892 
08:05	34.0	34.0	34.0	89	31.1	1	3	112	0.00	29.892 
08:10	34.0	34.0	34.0	89	31.1	1	3	112	0.00	29.892 
08:15	34.0	34.0	34.0	89	31.1	1	3	112	0.00	29.883 
08:20	34.0	34.0	34.0	89	31.1	1	3	112	0.00	29.883 
08:25	34.0	34.0	34.0	89	31.1	1	3	112	0.00	29.883 
08:30	34.0	34.0	34.0	89	31.1	1	4	112	0.00	29.879 
08:35	34.0	34.0	34.0	89	31.1	1	3	112	0.00	29.879 
08:40	34.0	34.0	34.0	89	31.1	1	3	112	0.00	29.879 
08:45	34.0	34.0	34.0	89	31.1	1	2	112	0.00	29.881 
08:50	34.0	34.0	34.0	90	31.4	1	2	112	0.00	29.881 
08:55	34.1	34.1	34.1	90	31.5	1	3	112	0.00	29.881 
09:00	34.1	34.1	34.1	90	31.5	1	2	90	0.00	29.880 
09:05	34.1	34.1	34.1	90	31.5	1	3	112	0.00	29.880 
09:10	34.1	34.1	34.1	90	31.5	1	2	90	0.00	29.880 
09:15	34.3	34.3	34.3	90	31.7	1	4	112	0.00	29.884 
09:20	34.3	34.3	34.3	90	31.7	1	3	112	0.00	29.884 
09:25	34.3	34.3	34.3	90	31.7	1	3	112	0.00	29.884 
09:30	34.4	34.4	34.4	90	31.8	1	2	112	0.00	29.895 
09:35	34.4	34.4	34.4	90	31.8	1	2	112	0.00	29.895 
09:40	34.4	34.4	34.4	90	31.8	1	3	112	0.00	29.895 
09:45	34.6	34.6	34.6	90	32.0	1	3	112	0.00	29.895 
09:50	34.6	34.6	34.6	91	32.2	1	3	112	0.00	29.895 
09:55	34.7	34.7	34.7	91	32.3	1	3	112	0.00	29.895 
10:00	34.7	34.7	34.7	91	32.3	1	4	135	0.00	29.901 
10:05	34.9	34.9	34.9	91	32.5	1	3	112	0.00	29.901 
10:10	34.9	34.9	34.9	91	32.5	2	5	90	0.00	29.901 
10:15	34.9	34.9	34.9	91	32.5	1	3	112	0.00	29.907 
10:20	35.0	35.0	35.0	91	32.6	1	3	90	0.00	29.907 
10:25	35.0	35.0	35.0	91	32.6	2	4	135	0.00	29.907 
10:30	35.2	35.2	35.2	91	32.8	1	2	112	0.00	29.908 
10:35	35.2	35.2	35.2	91	32.8	1	4	90	0.00	29.908 
10:40	35.3	35.3	35.3	91	32.9	1	4	90	0.00	29.908 
10:45	35.3	35.3	35.3	91	32.9	1	3	112	0.00	29.910 
10:50	35.5	35.5	35.5	91	33.1	1	2	112	0.00	29.910 
10:55	35.5	35.5	35.5	90	32.9	1	3	112	0.00	29.910 
11:00	35.6	35.6	35.6	90	33.0	1	3	112	0.00	29.911 
11:05	35.6	35.6	35.6	90	33.0	1	4	90	0.00	29.911 
11:10	35.8	35.8	35.8	90	33.2	1	2	112	0.00	29.911 
11:15	35.9	35.9	35.9	90	33.3	1	3	90	0.00	29.898 
11:20	35.9	35.9	35.9	90	33.3	1	2	90	0.00	29.898 
11:25	35.9	35.9	35.9	90	33.3	1	3	135	0.00	29.898 
11:30	36.0	36.0	36.0	90	33.4	1	2	135	0.00	29.895 
11:35	36.0	36.0	36.0	90	33.4	1	3	112	0.00	29.895 
11:40	36.0	36.0	36.0	90	33.4	2	5	112	0.00	29.895 
11:45	36.0	36.0	36.0	90	33.4	2	5	112	0.00	29.874 
11:50	36.2	36.2	36.2	90	33.6	2	4	135	0.00	29.874 
11:55	36.5	36.5	36.5	90	33.9	3	5	112	0.00	29.874 
12:00	36.5	36.5	36.5	90	33.9	3	11	112	0.00	29.850 
12:05	36.6	36.6	36.6	89	33.7	3	6	112	0.00	29.850 
12:10	36.8	36.8	36.8	89	33.9	2	6	112	0.00	29.850 
12:15	36.9	36.9	36.9	89	34.0	2	5	112	0.00	29.846 
12:20	37.0	37.0	37.0	88	33.8	2	8	112	0.00	29.846 
12:25	37.0	37.0	37.0	88	33.8	2	6	112	0.00	29.846 
12:30	37.0	37.0	37.0	88	33.8	2	5	90	0.00	29.837 
12:35	37.2	37.2	37.2	88	34.0	2	4	90	0.00	29.837 
12:40	37.2	37.2	37.2	88	34.0	2	4	90	0.00	29.837 
12:45	37.2	37.2	37.2	88	34.0	3	6	90	0.00	29.830 
12:50	37.2	37.2	37.2	88	34.0	2	5	90	0.00	29.830 
12:55	37.2	37.2	37.2	88	34.0	3	7	90	0.00	29.830 
13:00	37.0	37.0	37.0	89	34.1	2	4	90	0.00	29.823 
13:05	37.2	37.2	37.2	89	34.3	2	5	90	0.00	29.823 
13:10	37.2	37.2	37.2	89	34.3	2	5	90	0.00	29.823 
13:15	37.2	37.2	37.2	88	34.0	2	6	112	0.00	29.816 
13:20	37.2	37.2	37.2	88	34.0	2	7	90	0.00	29.816 
13:25	37.3	37.3	37.3	88	34.1	2	6	90	0.00	29.816 
13:30	37.6	37.6	37.6	88	34.4	2	4	135	0.00	29.810 
13:35	37.9	37.9	37.9	86	34.1	3	6	90	0.00	29.810 
13:40	38.3	38.3	38.3	86	34.5	2	6	90	0.00	29.810 
13:45	38.5	38.5	38.5	85	34.4	2	5	90	0.00	29.795 
13:50	38.5	38.5	38.5	85	34.4	2	5	90	0.00	29.795 
13:55	38.3	38.3	38.3	85	34.2	2	5	90	0.00	29.795 
14:00	38.2	38.2	38.2	85	34.1	2	5	112	0.00	29.784 
14:05	38.2	38.2	38.2	85	34.1	2	5	135	0.00	29.784 
14:10	38.2	38.2	38.2	85	34.1	3	7	112	0.00	29.784 
14:15	38.2	38.2	38.2	85	34.1	3	7	112	0.00	29.768 
14:20	38.0	38.0	38.0	85	33.9	2	5	90	0.00	29.768 
14:25	38.0	38.0	38.0	85	33.9	3	9	112	0.00	29.768 
14:30	38.0	38.0	38.0	86	34.2	3	7	90	0.00	29.753 
14:35	38.0	38.0	38.0	86	34.2	3	9	90	0.00	29.753 
14:40	38.2	38.2	38.2	86	34.4	2	5	112	0.00	29.753 
14:45	38.2	35.2	38.2	86	34.4	4	10	112	0.00	29.751 
14:50	38.2	38.2	38.2	86	34.4	2	6	112	0.00	29.751 
14:55	38.2	38.2	38.2	85	34.1	2	10	90	0.00	29.751 
15:00	38.3	38.3	38.3	85	34.2	2	5	112	0.00	29.753 
15:05	38.3	38.3	38.3	85	34.2	2	5	112	0.00	29.753 
15:10	38.3	38.3	38.3	86	34.5	2	7	90	0.00	29.753 
15:15	38.2	38.2	38.2	86	34.4	3	6	90	0.00	29.742 
15:20	38.2	38.2	38.2	86	34.4	3	6	112	0.00	29.742 
15:25	38.3	38.3	38.3	86	34.5	2	10	112	0.00	29.742 
15:30	38.3	38.3	38.3	86	34.5	3	7	112	0.00	29.732 
15:35	38.3	38.3	38.3	86	34.5	3	7	112	0.00	29.732 
15:40	38.2	38.2	38.2	86	34.4	2	4	90	0.00	29.732 
15:45	38.0	38.0	38.0	86	34.2	3	7	112	0.00	29.733 
15:50	38.0	38.0	38.0	86	34.2	2	6	112	0.00	29.733 
15:55	38.0	38.0	38.0	86	34.2	2	6	112	0.00	29.733 
16:00	38.0	38.0	38.0	86	34.2	3	6	112	0.00	29.728 
16:05	38.2	38.2	38.2	86	34.4	3	7	112	0.00	29.728 
16:10	38.2	38.2	38.2	86	34.4	2	5	112	0.00	29.728 
16:15	38.2	38.2	38.2	86	34.4	2	5	90	0.00	29.722 
16:20	38.2	38.2	38.2	86	34.4	2	7	112	0.00	29.722 
16:25	38.2	38.2	38.2	86	34.4	2	5	112	0.00	29.722 
16:30	38.2	38.2	38.2	86	34.4	2	6	90	0.00	29.722 
16:35	38.2	38.2	38.2	86	34.4	3	5	112	0.00	29.722 
16:40	38.2	38.2	38.2	86	34.4	3	6	90	0.00	29.722 
16:45	38.2	38.2	38.2	86	34.4	2	5	90	0.00	29.713 
16:50	38.2	38.2	38.2	86	34.4	3	7	90	0.00	29.713 
16:55	38.2	38.2	38.2	86	34.4	2	6	112	0.00	29.713 
17:00	38.2	38.2	38.2	86	34.4	3	8	112	0.00	29.704 
17:05	38.2	38.2	38.2	86	34.4	2	5	112	0.00	29.704 
17:10	38.2	38.2	38.2	86	34.4	2	6	90	0.00	29.704 
17:15	38.2	38.2	38.2	86	34.4	3	7	112	0.00	29.696 
17:20	38.2	38.2	38.2	86	34.4	3	11	112	0.00	29.696 
17:25	38.2	38.2	38.2	86	34.4	3	7	112	0.00	29.696 
17:30	38.2	38.2	38.2	86	34.4	3	6	90	0.00	29.692 
17:35	38.2	35.2	38.2	86	34.4	4	8	112	0.00	29.692 
17:40	38.2	38.2	38.2	86	34.4	3	8	112	0.00	29.692 
17:45	38.2	38.2	38.2	86	34.4	3	5	112	0.00	29.688 
17:50	38.2	38.2	38.2	86	34.4	3	10	90	0.00	29.688 
17:55	38.2	38.2	38.2	86	34.4	2	6	90	0.00	29.688 
18:00	38.2	38.2	38.2	86	34.4	2	6	90	0.00	29.678 
18:05	38.2	38.2	38.2	86	34.4	2	5	112	0.00	29.678 
18:10	38.2	38.2	38.2	86	34.4	2	6	90	0.00	29.678 
18:15	38.2	38.2	38.2	86	34.4	2	5	112	0.00	29.676 
18:20	38.2	38.2	38.2	85	34.1	2	7	112	0.00	29.676 
18:25	38.2	38.2	38.2	85	34.1	3	8	112	0.00	29.676 
18:30	38.2	38.2	38.2	85	34.1	2	6	90	0.00	29.675 
18:35	38.2	38.2	38.2	85	34.1	3	7	112	0.00	29.675 
18:40	38.3	38.3	38.3	85	34.2	3	5	112	0.00	29.675 
18:45	38.3	38.3	38.3	85	34.2	2	7	112	0.00	29.671 
18:50	38.3	38.3	38.3	85	34.2	3	6	90	0.00	29.671 
18:55	38.2	35.2	38.2	85	34.1	4	9	112	0.00	29.671 
19:00	38.2	38.2	38.2	85	34.1	3	5	112	0.00	29.667 
19:05	38.2	38.2	38.2	86	34.4	2	5	112	0.00	29.667 
19:10	38.2	38.2	38.2	86	34.4	3	9	112	0.00	29.667 
19:15	38.2	38.2	38.2	86	34.4	3	7	90	0.00	29.660 
19:20	38.2	38.2	38.2	86	34.4	3	7	90	0.00	29.660 
19:25	38.0	38.0	38.0	86	34.2	3	11	112	0.00	29.660 
19:30	38.2	38.2	38.2	85	34.1	3	10	112	0.00	29.653 
19:35	38.2	38.2	38.2	85	34.1	3	6	90	0.00	29.653 
19:40	38.3	38.3	38.3	85	34.2	2	7	112	0.00	29.653 
19:45	38.3	38.3	38.3	85	34.2	2	5	90	0.00	29.657 
19:50	38.3	38.3	38.3	85	34.2	1	4	112	0.00	29.657 
19:55	38.3	38.3	38.3	85	34.2	2	4	90	0.00	29.657 
20:00	38.3	38.3	38.3	84	33.9	3	5	90	0.00	29.661 
20:05	38.3	38.3	38.3	84	33.9	2	5	112	0.00	29.661 
20:10	38.3	38.3	38.3	85	34.2	2	7	68	0.00	29.661 
20:15	38.3	38.3	38.3	86	34.5	2	4	248	0.00	29.677 
20:20	38.3	38.3	38.3	86	34.5	1	3	112	0.00	29.677 
20:25	38.3	38.3	38.3	86	34.5	1	4	112	0.01	29.677 
20:30	38.3	38.3	38.3	86	34.5	1	4	22	0.00	29.676 
20:35	38.2	38.2	38.2	87	34.7	2	3	90	0.01	29.676 
20:40	38.0	38.0	38.0	87	34.5	2	5	135	0.00	29.676 
20:45	38.0	38.0	38.0	87	34.5	2	5	90	0.01	29.671 
20:50	37.9	37.9	37.9	88	34.7	2	7	90	0.00	29.671 
20:55	37.8	37.8	37.8	88	34.6	2	5	90	0.01	29.671 
21:00	37.8	37.8	37.8	88	34.6	2	7	112	0.01	29.661 
21:05	37.6	37.6	37.6	89	34.7	2	5	112	0.01	29.661 
21:10	37.3	37.3	37.3	89	34.4	2	5	112	0.01	29.661 
21:15	37.0	37.0	37.0	89	34.1	2	5	112	0.01	29.653 
21:20	36.8	36.8	36.8	89	33.9	3	9	90	0.01	29.653 
21:25	36.6	36.6	36.6	89	33.7	2	6	90	0.01	29.653 
21:30	36.5	36.5	36.5	90	33.9	2	5	112	0.00	29.640 
21:35	36.3	36.3	36.3	90	33.7	2	7	90	0.01	29.640 
21:40	36.2	36.2	36.2	90	33.6	2	5	90	0.00	29.640 
21:45	36.2	36.2	36.2	91	33.8	2	5	112	0.01	29.633 
21:50	36.0	36.0	36.0	91	33.6	2	3	112	0.01	29.633 
21:55	36.0	36.0	36.0	91	33.6	2	4	90	0.00	29.633 
22:00	36.0	36.0	36.0	91	33.6	2	4	90	0.00	29.627 
22:05	36.0	36.0	36.0	91	33.6	1	3	135	0.01	29.627 
22:10	36.0	36.0	36.0	92	33.9	1	5	112	0.00	29.627 
22:15	36.0	36.0	36.0	92	33.9	1	2	112	0.01	29.626 
22:20	35.9	35.9	35.9	92	33.8	1	3	112	0.01	29.626 
22:25	35.9	35.9	35.9	92	33.8	1	3	90	0.01	29.626 
22:30	35.9	35.9	35.9	92	33.8	1	4	135	0.01	29.622 
22:35	35.9	35.9	35.9	92	33.8	1	2	135	0.01	29.622 
22:40	35.9	35.9	35.9	92	33.8	1	3	135	0.01	29.622 
22:45	35.8	35.8	35.8	92	33.7	1	2	112	0.01	29.620 
22:50	35.8	35.8	35.8	92	33.7	1	3	112	0.01	29.620 
22:55	35.8	35.8	35.8	92	33.7	2	5	90	0.00	29.620 
23:00	35.8	35.8	35.8	92	33.7	2	4	90	0.01	29.619 
23:05	35.8	35.8	35.8	92	33.7	1	4	90	0.01	29.619 
23:10	35.8	35.8	35.8	92	33.7	2	6	90	0.01	29.619 
23:15	35.8	35.8	35.8	92	33.7	1	4	90	0.00	29.616 
23:20	35.8	35.8	35.8	92	33.7	1	3	112	0.01	29.616 
23:25	35.9	35.9	35.9	92	33.8	1	4	112	0.00	29.616 
23:30	35.9	35.9	35.9	92	33.8	1	4	68	0.01	29.612 
23:35	35.9	35.9	35.9	92	33.8	1	4	68	0.00	29.612 
23:40	35.9	35.9	35.9	92	33.8	1	3	158	0.00	29.612 
23:45	35.9	35.9	35.9	92	33.8	1	4	68	0.01	29.609 
23:50	35.9	35.9	35.9	92	33.8	2	5	270	0.00	29.609 
23:55	35.9	35.9	35.9	92	33.8	1	5	90	0.00	29.609 

CoCoRaHS
IN-AL-39
A2 Web Hosting
Creative Commons License
GoDaddy
Look for:

loaded 2017-12-10 21:30:53 • last modified 2010-11-18 10:43:29
Privacy PolicyDisclaimer
• wx.awcolley.com is powered by PmWiki v.2002016 •
• all content (unless otherwise noted) © 2017 A W Colley